www.pogodaiklimat.ru

Погода и климат >> Архив погоды >> Оман >> Эль-Хасаб аэропорт


ПОГОДА в Эль-Хасаб аэропорту

  • Прогноз погоды в Эль-Хасаб аэропорту
  • Монитор погоды в Эль-Хасаб аэропорту

АРХИВ ПОГОДЫ в Эль-Хасаб аэропорту

Время (UTC), дата Ветер
(напр.,м/с)
 
Видим.   Явления Облачность Т
(С)
Тd
(С)
f
(%)
Тe
(С)
Тes
(С)
Комфортность P
(гПа)
Po
(гПа)
Тmin
(С)
Tmax
(С)
R
(мм)
R24
(мм)
S
(см)
09 19.03 нст 5 10 км ясно +25.3 +8.1 33 +25 +34 комфорт 1013.4 1009.9
12 19.03 нст 3 10 км ясно +25.1 +5.5 28 +25 +30 комфорт 1011.5 1008.0
15 19.03 нст 3 10 км ясно +22.8 +7.5 37 +24 +24 комфорт 1012.2 1008.7
18 19.03 нст 3 30 км ясно +22.3 +6.7 36 +23 +23 комфорт 1013.2 1009.7 +25.6
21 19.03 нст 1 30 км ясно +20.5 +8.0 44 +23 +23 комфорт 1012.3 1008.7
00 20.03 нст 2 30 км ясно +18.2 +10.4 60 +19 +19 1011.5 1007.9
03 20.03 Ю 3 20 км ясно +17.5 +10.5 63 +18 +18 1012.5 1008.9
06 20.03 нст 2 10 км ясно +22.7 +9.3 42 +24 +38 комфорт 1013.9 1010.4 +17.0
09 20.03 нст 3 10 км ясно +25.2 +10.1 39 +26 +40 жарко 1012.5 1009.0
12 20.03 З 6 40 км ясно +24.9 +10.9 41 +26 +28 жарко 1010.1 1006.6
15 20.03 С 5 30 км ясно +22.8 +12.9 54 +26 +26 жарко 1010.9 1007.4
18 20.03 СВ 2 20 км ясно +21.9 +13.9 60 +25 +25 комфорт 1012.3 1008.8 +25.9
21 20.03 С 2 20 км ясно +20.9 +15.1 69 +25 +25 комфорт 1012.0 1008.4
00 21.03 СЗ 1 20 км ясно +20.2 +14.6 70 +24 +24 комфорт 1011.2 1007.6
03 21.03 нст 1 20 км ясно +19.2 +14.7 75 +22 +23 комфорт 1012.5 1008.9
06 21.03 нст 1 30 км ясно +23.6 +12.1 48 +25 +40 комфорт 1014.2 1010.7 +19.1
09 21.03 С 7 10 км 8/0
[Cs]
+25.0 +10.7 41 +26 +31 жарко 1013.3 1009.8
12 21.03 СВ 6 30 км ясно +24.4 +15.7 58 +27 +30 жарко 1011.9 1008.4
15 21.03 С 5 10 км ясно +22.8 +16.2 66 +27 +27 душно 1012.7 1009.2
18 21.03 нст 1 20 км ясно +22.5 +16.8 70 +27 +27 душно 1013.4 1009.9 +26.1
03 22.03 СВ 4 10 км 9/9 900 м
[Sc As op]
+23.4 +14.8 58 +27 +27 душно 1013.5 1010.0
06 22.03 С 4 20 км 10/3 900 м
[Sc As op]
+24.8 +16.6 60 +28 +30 жарко 1016.6 1013.1 +22.0
09 22.03 С 5 10 км 9/3 900 м
[Sc As op]
+26.3 +14.6 49 +29 +31 жарко 1015.3 1011.8
12 22.03 нст 3 10 км {дождь} 3/3 900 м
[Sc Ac trans]
+25.5 +10.7 39 +26 +30 жарко 1014.8 1011.3
15 22.03 нст 3 9000 м слаб. дождь 9/9 750 м
[Cu Sc Ac As]
+25.5 +14.8 52 +28 +28 жарко 1015.4 1011.9
18 22.03 Ю 4 8000 м {гроза, дождь} 9/9 1050 м
[Cu Sc Ac As]
+23.6 +15.8 62 +27 +27 жарко 1016.1 1012.6 +27.0 1
21 22.03 ЮЗ 3 20 км {дождь} 10/0
[]
+22.7 +15.4 63 +27 +27 душно 1014.1 1010.6
00 23.03 нст 2 20 км {дождь} 9/0
[]
+22.8 +14.0 58 +26 +26 жарко 1013.1 1009.6 2
03 23.03 нст 5 10 км 4/0
[Ac trans]
+23.8 +14.4 56 +26 +27 жарко 1015.2 1011.7
06 23.03 нст 2 10 км {гроза, дождь} 8/4 900 м
[Cu Sc Ac As]
+25.3 +12.4 45 +27 +31 жарко 1016.6 1013.1 +21.7
09 23.03 нст 4 9000 м гроза, ливневой дождь 10/10 900 м
[Cu Sc Ac As]
+22.5 +13.7 57 +26 +26 жарко 1017.8 1014.2
12 23.03 нст 2 50 км 10/5 900 м
[Cu Sc Ac As]
+22.5 +12.6 54 +25 +26 комфорт 1015.2 1011.7 0.4
15 23.03 ЮВ 4 50 км 3/3 900 м
[Sc Ac As]
+23.3 +11.8 48 +26 +26 жарко 1014.7 1011.2
18 23.03 нст 1 50 км мгла 6/3 900 м
[Sc Ac As]
+23.2 +11.7 48 +26 +26 жарко 1015.0 1011.5 +25.3
21 23.03 нст 1 50 км 1/0
[]
+22.2 +12.0 52 +25 +25 комфорт 1012.9 1009.4
00 24.03 нст 5 40 км 6/0
[]
+23.4 +14.8 58 +27 +27 душно 1010.4 1006.9 0.4
03 24.03 нст 3 30 км мгла {дождь} 10/10 750 м
[]
+24.4 +13.5 51 +27 +27 жарко 1011.5 1008.0
06 24.03 нст 6 9000 м мгла {дождь} ясно +24.7 +15.8 58 +28 +34 душно 1012.5 1009.0 +21.3 0.2
09 24.03 нст 5 10 км 5/3 600 м
[Sc Ac As]
+25.3 +17.1 60 +29 +35 душно 1012.1 1008.6
12 24.03 В 5 10 км 3/3 750 м
[Sc]
+24.7 +16.3 60 +28 +30 душно 1010.4 1006.9 0.2
15 24.03 нст 3 10 км 3/3 750 м
[Sc]
+24.6 +15.1 55 +27 +27 жарко 1010.9 1007.4
18 24.03 нст 5 10 км ясно +27.1 +12.6 41 +29 +29 жарко 1011.6 1008.1 +27.1
21 24.03 нст 6 40 км ясно +27.1 +12.2 40 +29 +29 жарко 1011.0 1007.5
00 25.03 Ю 4 40 км ясно +26.0 +12.7 44 +28 +28 жарко 1010.5 1007.0 0.2
03 25.03 нст 3 30 км ясно +25.8 +14.5 50 +28 +29 жарко 1011.7 1008.2
06 25.03 нст 5 10 км 10/1 750 м
[Sc Cs]
+26.0 +17.3 59 +30 +36 душно 1013.3 1009.8 +25.6
09 25.03 нст 5 10 км 10/1 750 м
[Sc Cs]
+26.7 +17.9 59 +31 +39 душно 1013.0 1009.5
12 25.03 нст 5 10 км 9/4 900 м
[Sc Cs]
+25.7 +18.5 64 +30 +32 душно 1011.3 1007.8
15 25.03 ЮВ 4 10 км 10/3 750 м
[Sc Ac trans Cs]
+27.1 +16.0 51 +30 +30 душно 1011.1 1007.6
18 25.03 Ю 3 10 км {дождь} 8/0
[Ci fib]
+27.4 +15.3 48 +30 +30 жарко 1012.2 1008.7 +28.3
21 25.03 нст 3 20 км 3/0
[]
+27.7 +14.2 44 +30 +30 жарко 1010.5 1007.0
00 26.03 ЮВ 6 20 км 9/0
[]
+25.3 +17.6 62 +29 +29 душно 1010.3 1006.8
03 26.03 нст 5 10 км 10/0
[Ac As Cs]
+24.5 +18.5 69 +29 +29 душно 1013.4 1009.9

 

Местоположение метеостанции Эль-Хасаб аэропорт (Оман): широта 26.17 долгота 56.23 высота над уровнем моря 3 м.

В архиве по умолчанию представлена погода в Эль-Хасаб аэропорту за последнюю неделю. Архивные данные за месяц целиком и за предыдущие месяцы, начиная с января 2011 года, Вы можете получить, выбрав интересующий диапазон дат из раскрывающегося списка и нажав кнопку "Ввод!".


*Определитесь, кто Вы:
робот инопланетянин человек

Внимание! Время в таблицах - всемирное. Для получения местного времени необходимо прибавить поправку, которая равна 4 ч.

Смотрите также архив погоды в соседних городах и на ближайших метеорологических станциях:

Погода в Эль-Хасабе (Оман) (5 км)
Погода в Дибе (Оман) (61 км)
Погода в Рай-эль-Хайма аэропорту (ОАЭ) (68 км)
Погода в Шардже (ОАЭ) (117 км)
Погода в Бендер-Аббасе (Иран) (118 км)
Погода в Фуджейре (ОАЭ) (119 км)
Погода в Дубае (ОАЭ) (136 км)
Погода на Острове Абу-Муса (Иран) (145 км)
Погода в Бендер-Ленге (Иран) (147 км)
Погода в Джаске (Иран) (165 км)

Пояснения к столбцам:

Ветер - указаны скорость ветра в м/с - средняя за 10 мин, порывы в срок и между сроками (в фигурных скобках) и направление, откуда дует ветер: С - северный, СВ - северо-восточный, В - восточный, ЮВ - юго-восточный, Ю - южный, ЮЗ - юго-западный, З - западный, СЗ - северо-западный.
Видимость - горизонтальная дальность видимости в метрах или километрах. При видимости от 1 до 10 км при отсутствии осадков обычно наблюдается дымка, при ухудшении видимости до 1 км и менее - туман. В сухую погоду видимость может ухудшаться дымом, пылью или мглою.
Явления - указаны атмосферные явления, наблюдавшиеся в срок или в последний час перед сроком; фигурными скобками обозначены явления, наблюдавшиеся между сроками (за 1-3 часа до срока); квадратными скобками обозначены град или гололедные отложения с указанием их диаметра в мм.
Облачность - указаны через наклонную черту общая и нижняя облачность в баллах и высота нижней границы облаков в метрах; квадратными скобками обозначены формы облаков: Ci - перистые, Cs - перисто-слоистые, Cc - перисто-кучевые, Ac - высококучевые, As - высокослоистые, Sc - слоисто-кучевые, Ns - слоисто-дождевые, Cu - кучевые, Cb - кучево-дождевые. Подробнее классификацию облаков см. в Атласе облаков (PDF).
T - Температура воздуха - температура, измеренная на высоте 2 м над землей.
Td - Температура точки росы - температура, при понижении до которой содержащийся в воздухе водяной пар достигнет насыщения.
f - Относительная влажность воздуха - влажноcть воздуха, измеренная на высоте 2 м над землей.
Te - Эффективная температура - температура, которую ощущает одетый по сезону человек в тени. Характеристика душности погоды. При расчете учитывается влияние влажности воздуха и скорости ветра на теплоощущения человека.
Tes - Эффективная температура на солнце - температура, которую ощущает человек, с поправкой на солнечный нагрев. Характеристика знойности погоды. Зависит от высоты солнца над горизонтом, облачности и скорости ветра. Ночью, в пасмурную погоду, а также при ветре 12 м/с и более поправка равна нулю.
P - Атмосферное давление - приведенное к уровню моря атмосферное давление.
Po - Атмосферное давление - измеренное на уровне метеостанции атмосферное давление.
Tmin - Минимальная температура - минимум температуры воздуха на высоте 2 м над землей.
Tmax - Максимальная температура - максимум температуры воздуха на высоте 2 м над землей.
R - Количество осадков - Количество выпавших осадков за период времени, мм. При наведении курсора мыши на число - период времени, за который выпало указанное количество осадков.
R24 - Количество осадков - Количество выпавших осадков за 24 часа, мм.
S - Снежный покров - Высота снежного покрова, см. При наведении курсора мыши на число - состояние снежного покрова и степень покрытия местности в баллах.